| time (UTC) | temp F | wind direction | speed MPH | gust MPH | rain 1hr in | rain 24hr in | rain mn in | humidity % | barometer mb |
| 20260508060032 | 49 | 292 | 3.0 | 7.0 | 0.00 | 0.00 | 0.00 | 59 | 1012.3 |
| 20260508054533 | 50 | 314 | 2.0 | 4.0 | 0.00 | 0.00 | 0.00 | 59 | 1012.4 |
| 20260508053034 | 52 | 315 | 4.0 | 9.0 | 0.00 | 0.00 | 0.00 | 55 | 1012.4 |
| 20260508051528 | 54 | 277 | 7.0 | 10.0 | 0.00 | 0.00 | 0.00 | 55 | 1012.2 |
| 20260508050032 | 54 | 276 | 7.0 | 9.0 | 0.00 | 0.00 | 0.00 | 54 | 1012.3 |
| 20260508044532 | 56 | 267 | 6.0 | 11.0 | 0.00 | 0.00 | 0.00 | 52 | 1012.3 |
| 20260508043032 | 56 | 271 | 7.0 | 12.0 | 0.00 | 0.00 | 0.00 | 53 | 1012.3 |
| 20260508041531 | 57 | 242 | 7.0 | 13.0 | 0.00 | 0.00 | 0.00 | 52 | 1012.4 |
| 20260508040037 | 57 | 265 | 7.0 | 13.0 | 0.00 | 0.00 | 0.00 | 51 | 1012.5 |
| 20260508034531 | 58 | 260 | 9.0 | 14.0 | 0.00 | 0.00 | 0.00 | 50 | 1012.4 |
| 20260508033033 | 60 | 276 | 10.0 | 19.0 | 0.00 | 0.00 | 0.00 | 48 | 1012.6 |
| 20260508031533 | 59 | 288 | 9.0 | 13.0 | 0.00 | 0.00 | 0.00 | 49 | 1012.4 |
| 20260508030032 | 59 | 286 | 7.0 | 10.0 | 0.00 | 0.00 | 0.00 | 50 | 1012.0 |
| 20260508024542 | 58 | 279 | 6.0 | 9.0 | 0.00 | 0.00 | 0.00 | 50 | 1011.8 |
| 20260508023032 | 60 | 293 | 5.0 | 10.0 | 0.00 | 0.00 | 0.00 | 46 | 1011.7 |
| 20260508021534 | 62 | 278 | 4.0 | 11.0 | 0.00 | 0.00 | 0.00 | 45 | 1011.4 |
| 20260508020032 | 62 | 280 | 8.0 | 13.0 | 0.00 | 0.00 | 0.00 | 44 | 1011.4 |
| 20260508014545 | 63 | 265 | 10.0 | 16.0 | 0.00 | 0.00 | 0.00 | 44 | 1011.3 |
| 20260508013033 | 64 | 279 | 13.0 | 18.0 | 0.00 | 0.00 | 0.00 | 42 | 1011.2 |
| 20260508011531 | 64 | 279 | 11.0 | 23.0 | 0.00 | 0.00 | 0.00 | 40 | 1010.8 |
| 20260508010032 | 64 | 265 | 13.0 | 22.0 | 0.00 | 0.00 | 0.00 | 41 | 1010.9 |
| 20260508004531 | 66 | 274 | 11.0 | 18.0 | 0.00 | 0.00 | 0.00 | 36 | 1011.0 |
| 20260508003052 | 66 | 346 | 10.0 | 17.0 | 0.00 | 0.00 | 0.00 | 29 | 1010.9 |
| 20260508001531 | 66 | 320 | 11.0 | 18.0 | 0.00 | 0.00 | 0.00 | 30 | 1011.0 |
| 20260508000031 | 66 | 337 | 18.0 | 23.0 | 0.00 | 0.00 | 0.00 | 30 | 1010.9 |
| 20260507234532 | 67 | 360 | 11.0 | 20.0 | 0.00 | 0.00 | 0.00 | 31 | 1010.8 |
| 20260507233036 | 67 | 360 | 16.0 | 24.0 | 0.00 | 0.00 | 0.00 | 30 | 1010.7 |
| 20260507231532 | 67 | 338 | 11.0 | 21.0 | 0.00 | 0.00 | 0.00 | 32 | 1010.7 |
| 20260507230030 | 68 | 312 | 14.0 | 20.0 | 0.00 | 0.00 | 0.00 | 31 | 1010.7 |
| 20260507224533 | 67 | 319 | 15.0 | 23.0 | 0.00 | 0.00 | 0.00 | 32 | 1010.9 |
| 20260507223028 | 66 | 360 | 14.0 | 22.0 | 0.00 | 0.00 | 0.00 | 32 | 1011.0 |
| 20260507221532 | 66 | 323 | 14.0 | 24.0 | 0.00 | 0.00 | 0.00 | 33 | 1011.1 |
| 20260507220030 | 67 | 355 | 16.0 | 22.0 | 0.00 | 0.00 | 0.00 | 32 | 1011.1 |
| 20260507214530 | 67 | 295 | 12.0 | 22.0 | 0.00 | 0.00 | 0.00 | 33 | 1011.2 |
| 20260507213032 | 66 | 22 | 14.0 | 22.0 | 0.00 | 0.00 | 0.00 | 33 | 1011.2 |
| 20260507211529 | 67 | 355 | 11.0 | 21.0 | 0.00 | 0.00 | 0.00 | 31 | 1011.5 |
| 20260507210031 | 67 | 315 | 14.0 | 24.0 | 0.00 | 0.00 | 0.00 | 31 | 1011.4 |
| 20260507204532 | 66 | 5 | 15.0 | 25.0 | 0.00 | 0.00 | 0.00 | 30 | 1011.5 |
| 20260507203030 | 66 | 355 | 16.0 | 25.0 | 0.00 | 0.00 | 0.00 | 31 | 1011.6 |
| 20260507201531 | 65 | 355 | 17.0 | 23.0 | 0.00 | 0.00 | 0.00 | 32 | 1011.6 |
| 20260507200030 | 64 | 348 | 12.0 | 25.0 | 0.00 | 0.00 | 0.00 | 33 | 1011.5 |
| 20260507194536 | 64 | 360 | 18.0 | 24.0 | 0.00 | 0.00 | 0.00 | 33 | 1011.4 |
| 20260507193034 | 65 | 311 | 10.0 | 19.0 | 0.00 | 0.00 | 0.00 | 34 | 1011.2 |
| 20260507191533 | 65 | 329 | 14.0 | 24.0 | 0.00 | 0.00 | 0.00 | 36 | 1011.3 |
| 20260507190035 | 65 | 5 | 10.0 | 21.0 | 0.00 | 0.00 | 0.00 | 35 | 1011.2 |
| 20260507184531 | 64 | 329 | 17.0 | 26.0 | 0.00 | 0.00 | 0.00 | 34 | 1011.5 |
| 20260507183031 | 66 | 295 | 12.0 | 22.0 | 0.00 | 0.00 | 0.00 | 35 | 1011.4 |
| 20260507181528 | 65 | 355 | 14.0 | 24.0 | 0.00 | 0.00 | 0.00 | 35 | 1011.6 |
| 20260507180030 | 65 | 302 | 14.0 | 27.0 | 0.00 | 0.00 | 0.00 | 39 | 1011.8 |
| 20260507174532 | 65 | 337 | 15.0 | 30.0 | 0.00 | 0.00 | 0.00 | 39 | 1011.8 |
| 20260507173034 | 64 | 5 | 18.0 | 28.0 | 0.00 | 0.00 | 0.00 | 39 | 1011.9 |
| 20260507171529 | 64 | 346 | 17.0 | 26.0 | 0.00 | 0.00 | 0.00 | 39 | 1011.9 |
| 20260507170030 | 63 | 360 | 15.0 | 29.0 | 0.00 | 0.00 | 0.00 | 41 | 1012.0 |
| 20260507164530 | 63 | 341 | 19.0 | 26.0 | 0.00 | 0.00 | 0.00 | 41 | 1012.1 |
| 20260507163028 | 62 | 336 | 18.0 | 28.0 | 0.00 | 0.00 | 0.00 | 42 | 1012.0 |
| 20260507161531 | 62 | 336 | 11.0 | 20.0 | 0.00 | 0.00 | 0.00 | 41 | 1012.0 |
| 20260507160035 | 61 | 306 | 12.0 | 17.0 | 0.00 | 0.00 | 0.00 | 43 | 1012.0 |
| 20260507154531 | 61 | 326 | 10.0 | 17.0 | 0.00 | 0.00 | 0.00 | 44 | 1012.0 |
| 20260507153033 | 60 | 286 | 8.0 | 14.0 | 0.00 | 0.00 | 0.00 | 47 | 1012.0 |
| 20260507151530 | 58 | 309 | 7.0 | 10.0 | 0.00 | 0.00 | 0.00 | 49 | 1012.1 |
| 20260507150030 | 56 | 290 | 5.0 | 8.0 | 0.00 | 0.00 | 0.00 | 53 | 1012.2 |
| 20260507144534 | 53 | 288 | 2.0 | 5.0 | 0.00 | 0.00 | 0.00 | 55 | 1012.2 |
| 20260507143034 | 52 | 36 | 3.0 | 11.0 | 0.00 | 0.00 | 0.00 | 55 | 1012.1 |
| 20260507141531 | 52 | 32 | 5.0 | 8.0 | 0.00 | 0.00 | 0.00 | 56 | 1012.2 |
| 20260507140030 | 52 | 14 | 6.0 | 9.0 | 0.00 | 0.00 | 0.00 | 56 | 1012.0 |
| 20260507134530 | 50 | 296 | 3.0 | 5.0 | 0.00 | 0.00 | 0.00 | 57 | 1012.0 |
| 20260507133032 | 49 | 296 | 3.0 | 11.0 | 0.00 | 0.00 | 0.00 | 59 | 1011.8 |
| 20260507131539 | 47 | 287 | 7.0 | 10.0 | 0.00 | 0.00 | 0.00 | 59 | 1011.7 |
| 20260507130029 | 45 | 275 | 6.0 | 10.0 | 0.00 | 0.00 | 0.00 | 59 | 1011.4 |
| 20260507124532 | 44 | 295 | 6.0 | 10.0 | 0.00 | 0.00 | 0.00 | 57 | 1011.4 |
| 20260507123029 | 42 | 279 | 7.0 | 10.0 | 0.00 | 0.00 | 0.00 | 55 | 1011.1 |
| 20260507121528 | 41 | 267 | 7.0 | 9.0 | 0.00 | 0.00 | 0.00 | 54 | 1010.9 |
| 20260507120030 | 42 | 290 | 7.0 | 9.0 | 0.00 | 0.00 | 0.00 | 54 | 1010.9 |
| 20260507114531 | 42 | 292 | 6.0 | 8.0 | 0.00 | 0.00 | 0.00 | 53 | 1010.8 |
| 20260507113034 | 44 | 253 | 5.0 | 8.0 | 0.00 | 0.00 | 0.00 | 49 | 1010.7 |
| 20260507111533 | 42 | 285 | 7.0 | 9.0 | 0.00 | 0.00 | 0.00 | 53 | 1010.4 |
| 20260507110032 | 43 | 298 | 7.0 | 9.0 | 0.00 | 0.00 | 0.00 | 52 | 1010.3 |
| 20260507104531 | 43 | 360 | 4.0 | 6.0 | 0.00 | 0.00 | 0.00 | 55 | 1010.3 |
| 20260507103028 | 43 | 325 | 5.0 | 8.0 | 0.00 | 0.00 | 0.00 | 56 | 1010.2 |
| 20260507101552 | 42 | 321 | 7.0 | 11.0 | 0.00 | 0.00 | 0.00 | 57 | 1010.2 |
| 20260507100035 | 42 | 12 | 8.0 | 16.0 | 0.00 | 0.00 | 0.00 | 61 | 1010.1 |
| 20260507094531 | 42 | 316 | 8.0 | 12.0 | 0.00 | 0.00 | 0.00 | 58 | 1010.0 |
| 20260507093032 | 42 | 339 | 4.0 | 8.0 | 0.00 | 0.00 | 0.00 | 60 | 1009.8 |
| 20260507091548 | 42 | 12 | 6.0 | 8.0 | 0.00 | 0.00 | 0.00 | 59 | 1010.0 |
| 20260507090029 | 42 | 355 | 6.0 | 9.0 | 0.00 | 0.00 | 0.00 | 62 | 1009.9 |
| 20260507084529 | 42 | 22 | 8.0 | 12.0 | 0.00 | 0.00 | 0.00 | 65 | 1009.2 |
| 20260507083031 | 43 | 22 | 10.0 | 13.0 | 0.00 | 0.00 | 0.00 | 65 | 1009.4 |
| 20260507081547 | 45 | 24 | 11.0 | 16.0 | 0.00 | 0.00 | 0.00 | 61 | 1009.4 |
| 20260507080031 | 45 | 30 | 2.0 | 6.0 | 0.00 | 0.00 | 0.00 | 57 | 1009.3 |
| 20260507074536 | 46 | 28 | 5.0 | 8.0 | 0.00 | 0.00 | 0.00 | 55 | 1009.2 |
| 20260507073030 | 45 | 55 | 3.0 | 6.0 | 0.00 | 0.00 | 0.00 | 57 | 1009.0 |
| 20260507071531 | 46 | 65 | 4.0 | 8.0 | 0.00 | 0.00 | 0.00 | 57 | 1009.0 |
| 20260507070030 | 46 | 76 | 6.0 | 11.0 | 0.00 | 0.00 | 0.00 | 56 | 1008.9 |
| 20260507064530 | 48 | 55 | 7.0 | 13.0 | 0.00 | 0.00 | 0.00 | 55 | 1008.7 |
| 20260507063030 | 49 | 65 | 12.0 | 16.0 | 0.00 | 0.00 | 0.00 | 53 | 1008.6 |
| 20260507061533 | 49 | 65 | 10.0 | 15.0 | 0.00 | 0.00 | 0.00 | 54 | 1008.6 |